Weather History for Tirana, Albania

Change the Weather History Date:

Friday, March 15, 2013

  Actual Average Record
Temperature  
Mean Temperature 46 °F -  
Max Temperature 50 °F 61 °F 71 °F (2011)
Min Temperature 41 °F 46 °F 35 °F (2009)
Degree Days  
Heating Degree Days 20    
Moisture  
Dew Point 38 °F    
Average Humidity 71    
Maximum Humidity 93    
Minimum Humidity 48    
Precipitation  
Precipitation 0.00 in -13.12 in - ()
Sea Level Pressure  
Sea Level Pressure 29.47 in    
Wind  
Wind Speed 6 mph ()    
Max Wind Speed 10 mph    
Max Gust Speed -    
Visibility 6.5 miles    
Events Rain , Thunderstorm    
Averages and records for this station are not official NWS values.
T = Trace of Precipitation, MM = Missing Value Source: Averaged Metar Reports

Daily Weather History Graph

Daily Weather History Graph

Search for Another Location

Airport:

Trip Planner

Search our weather history database for the weather conditions in past years. The results will help you decide how hot, cold, wet, or windy it might be!

Date:

Astronomy

Mar. 15, 2013 Rise Set
Actual Time 5:52 AM CET 5:47 PM CET
Civil Twilight 5:25 AM CET 6:15 PM CET
Nautical Twilight 4:53 AM CET 6:47 PM CET
Astronomical Twilight 4:20 AM CET 7:20 PM CET
Moon 7:29 AM CET 9:47 PM CET
Length of Visible Light 12h 49m
Length of Day
11h 54m
Waxing Crescent, 14% of the Moon is Illuminated
Mar 15
Waxing Crescent
Mar 19
First Quarter
Mar 27
Full
Apr 3
Last Quarter
Apr 10
New

Hourly Weather History & Observations

Time (CET) Temp. Windchill Dew Point Humidity Pressure Visibility Wind Dir Wind Speed Gust Speed Precip Events Conditions
12:20 AM 46.4 °F 42.4 °F 42.8 °F 87% 29.21 in 6.2 mi SE 8.1 mph - N/A Rain Light Rain
12:50 AM 46.4 °F 42.4 °F 44.6 °F 93% 29.24 in 6.2 mi ESE 8.1 mph - N/A Rain Rain
1:20 AM 48.2 °F - 44.6 °F 87% 29.24 in 6.2 mi ESE 5.8 mph - N/A   Mostly Cloudy
1:50 AM 48.2 °F - 44.6 °F 87% 29.24 in 6.2 mi ESE 6.9 mph - N/A   Overcast
2:20 AM 50.0 °F - 42.8 °F 76% 29.24 in 6.2 mi South 6.9 mph - N/A   Overcast
2:50 AM 50.0 °F - 41.0 °F 71% 29.27 in 6.2 mi SSW 9.2 mph - N/A   Overcast
3:20 AM 48.2 °F - 44.6 °F 87% 29.27 in 6.2 mi SW 8.1 mph - N/A Rain Light Rain
3:50 AM 48.2 °F - 41.0 °F 76% 29.30 in 6.2 mi West 8.1 mph - N/A Rain Light Rain
4:00 AM 48 °F - 41 °F 69% 29.32 in 22 mi West 6.7 mph - -   Partly Cloudy
4:20 AM 48.2 °F - 39.2 °F 71% 29.33 in 6.2 mi WNW 10.4 mph - N/A   Overcast
4:50 AM 48.2 °F - 39.2 °F 71% 29.33 in 6.2 mi WNW 5.8 mph - N/A   Overcast
5:20 AM 48.2 °F - 39.2 °F 71% 29.33 in 6.2 mi WSW 3.5 mph - N/A   Mostly Cloudy
5:50 AM 46.4 °F - 41.0 °F 81% 29.36 in 6.2 mi Variable 2.3 mph - N/A   Overcast
6:20 AM 46.4 °F 43.5 °F 41.0 °F 81% 29.36 in 6.2 mi ESE 5.8 mph - N/A   Overcast
6:50 AM 48.2 °F - 42.8 °F 82% 29.36 in 6.2 mi SSE 4.6 mph - N/A   Overcast
7:20 AM 48.2 °F - 39.2 °F 71% 29.39 in 6.2 mi Variable 2.3 mph - N/A   Mostly Cloudy
7:50 AM 48.2 °F - 41.0 °F 76% 29.39 in 6.2 mi Variable 2.3 mph - N/A Rain Light Rain
8:20 AM 48.2 °F - 42.8 °F 82% 29.42 in 6.2 mi SSE 4.6 mph - N/A   Light Drizzle
8:50 AM 46.4 °F - 42.8 °F 87% 29.42 in 6.2 mi Variable 2.3 mph - N/A Rain Light Rain
9:20 AM 48.2 °F - 42.8 °F 82% 29.44 in 6.2 mi ESE 3.5 mph - N/A Rain Light Rain
9:50 AM 48.2 °F - 42.8 °F 82% 29.44 in 6.2 mi South 4.6 mph - N/A Rain Light Rain
10:00 AM 48 °F - 42 °F 72% 29.47 in 11 mi South 4.5 mph - -   Mostly Cloudy
10:20 AM 48.2 °F - 42.8 °F 82% 29.47 in 6.2 mi South 4.6 mph - N/A Rain Light Rain
10:50 AM 46.4 °F 41.9 °F 37.4 °F 71% 29.47 in 6.2 mi SW 9.2 mph - N/A Rain , Thunderstorm Light Thunderstorms and Rain
11:20 AM 48.2 °F - 41.0 °F 76% 29.50 in 6.2 mi WSW 5.8 mph - N/A Rain Light Rain
11:50 AM 48.2 °F - 39.2 °F 71% 29.50 in 6.2 mi WSW 4.6 mph - N/A   Overcast
12:20 PM 46.4 °F 45.2 °F 37.4 °F 71% 29.50 in 6.2 mi WNW 3.5 mph - N/A   Light Drizzle
12:50 PM 48.2 °F - 37.4 °F 66% 29.50 in 6.2 mi NW 2.3 mph - N/A   Overcast
1:20 PM 48.2 °F - 37.4 °F 66% 29.50 in 6.2 mi Calm Calm - N/A   Mostly Cloudy
1:50 PM 48.2 °F - 39.2 °F 71% 29.50 in 6.2 mi NE 3.5 mph - N/A   Mostly Cloudy
2:20 PM 48.2 °F - 37.4 °F 66% 29.50 in 6.2 mi Variable 2.3 mph - N/A   Overcast
2:50 PM 50.0 °F - 37.4 °F 62% 29.50 in 6.2 mi Calm Calm - N/A   Overcast
3:20 PM 50.0 °F - 37.4 °F 62% 29.50 in 6.2 mi NNW 3.5 mph - N/A   Mostly Cloudy
3:50 PM 48.2 °F - 35.6 °F 62% 29.53 in 6.2 mi NNW 5.8 mph - N/A   Mostly Cloudy
4:00 PM 49 °F - 35 °F 48% 29.55 in 28 mi NNW 6.7 mph - -   Overcast
4:20 PM 48.2 °F - 35.6 °F 62% 29.53 in 6.2 mi NW 6.9 mph - N/A   Overcast
4:50 PM 48.2 °F - 33.8 °F 58% 29.56 in 6.2 mi NW 5.8 mph - N/A   Overcast
5:20 PM 48.2 °F - 35.6 °F 62% 29.56 in 6.2 mi NNW 5.8 mph - N/A   Overcast
5:50 PM 48.2 °F - 33.8 °F 58% 29.56 in 6.2 mi WNW 5.8 mph - N/A   Mostly Cloudy
6:20 PM 46.4 °F 45.2 °F 33.8 °F 62% 29.59 in 6.2 mi West 3.5 mph - N/A Thunderstorm Mostly Cloudy
6:50 PM 46.4 °F 43.5 °F 32.0 °F 57% 29.59 in 6.2 mi West 5.8 mph - N/A Thunderstorm Overcast
7:20 PM 46.4 °F 44.3 °F 33.8 °F 62% 29.59 in 6.2 mi WSW 4.6 mph - N/A   Mostly Cloudy
7:50 PM 44.6 °F 40.2 °F 35.6 °F 71% 29.62 in 6.2 mi NW 8.1 mph - N/A   Mostly Cloudy
8:20 PM 42.8 °F 39.3 °F 35.6 °F 76% 29.62 in 6.2 mi NW 5.8 mph - N/A   Mostly Cloudy
8:50 PM 42.8 °F 39.3 °F 35.6 °F 76% 29.65 in 6.2 mi NW 5.8 mph - N/A   Mostly Cloudy
9:20 PM 42.8 °F 38.0 °F 32.0 °F 66% 29.65 in 6.2 mi NW 8.1 mph - N/A   Mostly Cloudy
9:50 PM 42.8 °F 38.0 °F 32.0 °F 66% 29.65 in 6.2 mi NW 8.1 mph - N/A   Mostly Cloudy
10:00 PM 42 °F - 31 °F 54% 29.68 in 17 mi NW 8.9 mph - -   Mostly Cloudy
10:20 PM 41.0 °F 37.1 °F 32.0 °F 70% 29.65 in 6.2 mi NW 5.8 mph - N/A   Mostly Cloudy
10:50 PM 41.0 °F 35.8 °F 30.2 °F 65% 29.68 in 6.2 mi WNW 8.1 mph - N/A   Mostly Cloudy
11:20 PM 41.0 °F 34.7 °F 28.4 °F 61% 29.68 in 6.2 mi WNW 10.4 mph - N/A Rain Light Rain
11:50 PM 41.0 °F 34.7 °F 30.2 °F 65% 29.68 in 6.2 mi NW 10.4 mph - N/A   Overcast